| time (UTC) | temp F | wind direction | speed MPH | gust MPH | rain 1hr in | rain 24hr in | rain mn in | humidity % | barometer mb |
| 20260507062538 | 56 | 0 | 0.0 | 2.0 | 0.00 | 0.38 | 0.00 | 85 | 1013.1 |
| 20260507062038 | 56 | 305 | 0.0 | 3.0 | 0.00 | 0.38 | 0.00 | 85 | 1013.1 |
| 20260507061545 | 56 | 305 | 1.0 | 4.0 | 0.00 | 0.38 | 0.00 | 86 | 1013.0 |
| 20260507061038 | 55 | 300 | 1.0 | 4.0 | 0.00 | 0.38 | 0.00 | 86 | 1012.9 |
| 20260507060538 | 55 | 331 | 2.0 | 3.0 | 0.00 | 0.38 | 0.00 | 86 | 1012.9 |
| 20260507060045 | 55 | 287 | 1.0 | 3.0 | 0.00 | 0.38 | 0.00 | 87 | 1012.8 |
| 20260507055538 | 55 | 307 | 2.0 | 3.0 | 0.00 | 0.38 | 0.00 | 87 | 1012.9 |
| 20260507055037 | 55 | 5 | 1.0 | 3.0 | 0.00 | 0.38 | 0.00 | 88 | 1012.8 |
| 20260507054545 | 55 | 0 | 0.0 | 3.0 | 0.00 | 0.38 | 0.00 | 88 | 1012.8 |
| 20260507054037 | 55 | 284 | 1.0 | 3.0 | 0.00 | 0.38 | 0.00 | 88 | 1012.8 |
| 20260507053538 | 54 | 254 | 1.0 | 4.0 | 0.00 | 0.38 | 0.00 | 88 | 1012.8 |
| 20260507053111 | 54 | 254 | 2.0 | 4.0 | 0.00 | 0.38 | 0.00 | 89 | 1012.7 |
| 20260507052538 | 54 | 229 | 2.0 | 4.0 | 0.00 | 0.38 | 0.00 | 89 | 1012.6 |
| 20260507052037 | 54 | 0 | 0.0 | 3.0 | 0.00 | 0.38 | 0.00 | 88 | 1012.5 |
| 20260507051552 | 54 | 246 | 1.0 | 3.0 | 0.00 | 0.38 | 0.00 | 88 | 1012.5 |
| 20260507051037 | 54 | 0 | 1.0 | 2.0 | 0.00 | 0.38 | 0.00 | 88 | 1012.4 |
| 20260507050538 | 54 | 0 | 0.0 | 2.0 | 0.00 | 0.38 | 0.00 | 88 | 1012.3 |
| 20260507050046 | 54 | 0 | 0.0 | 1.0 | 0.00 | 0.38 | 0.00 | 88 | 1012.2 |
| 20260507045539 | 54 | 11 | 0.0 | 1.0 | 0.00 | 0.52 | 0.00 | 88 | 1012.1 |
| 20260507045039 | 54 | 0 | 0.0 | 1.0 | 0.00 | 0.52 | 0.00 | 87 | 1012.2 |
| 20260507044547 | 54 | 0 | 0.0 | 0.0 | 0.00 | 0.52 | 0.00 | 87 | 1012.1 |
| 20260507044037 | 54 | 0 | 0.0 | 0.0 | 0.00 | 0.52 | 0.00 | 87 | 1012.0 |
| 20260507043537 | 54 | 0 | 0.0 | 0.0 | 0.00 | 0.52 | 0.00 | 87 | 1011.9 |
| 20260507043047 | 54 | 0 | 0.0 | 1.0 | 0.00 | 0.52 | 0.00 | 87 | 1012.0 |
| 20260507042538 | 54 | 0 | 0.0 | 2.0 | 0.00 | 0.52 | 0.00 | 87 | 1011.9 |
| 20260507042037 | 54 | 0 | 0.0 | 2.0 | 0.00 | 0.52 | 0.00 | 87 | 1011.8 |
| 20260507041547 | 54 | 5 | 0.0 | 2.0 | 0.00 | 0.52 | 0.00 | 87 | 1011.8 |
| 20260507041037 | 54 | 5 | 0.0 | 2.0 | 0.00 | 0.52 | 0.00 | 87 | 1011.9 |
| 20260507040538 | 54 | 0 | 0.0 | 2.0 | 0.00 | 0.52 | 0.00 | 87 | 1011.8 |
| 20260507040134 | 54 | 0 | 0.0 | 2.0 | 0.00 | 0.52 | 0.00 | 87 | 1011.8 |
| 20260507035538 | 54 | 0 | 0.0 | 2.0 | 0.00 | 0.61 | 0.00 | 86 | 1011.8 |
| 20260507035037 | 54 | 352 | 0.0 | 3.0 | 0.00 | 0.61 | 0.00 | 86 | 1011.9 |
| 20260507034546 | 54 | 0 | 0.0 | 5.0 | 0.00 | 0.61 | 0.00 | 86 | 1012.0 |
| 20260507034037 | 54 | 10 | 2.0 | 5.0 | 0.00 | 0.61 | 0.00 | 87 | 1011.9 |
| 20260507033538 | 54 | 332 | 2.0 | 4.0 | 0.00 | 0.61 | 0.00 | 86 | 1011.8 |
| 20260507033052 | 54 | 334 | 2.0 | 5.0 | 0.00 | 0.61 | 0.00 | 86 | 1011.8 |
| 20260507032539 | 54 | 352 | 2.0 | 7.0 | 0.00 | 0.61 | 0.00 | 86 | 1011.8 |
| 20260507032037 | 54 | 329 | 3.0 | 7.0 | 0.00 | 0.61 | 0.00 | 86 | 1011.7 |
| 20260507031553 | 54 | 316 | 2.0 | 4.0 | 0.00 | 0.61 | 0.00 | 86 | 1011.8 |
| 20260507031040 | 54 | 321 | 2.0 | 5.0 | 0.00 | 0.61 | 0.00 | 86 | 1011.7 |
| 20260507030537 | 54 | 344 | 2.0 | 5.0 | 0.00 | 0.61 | 0.00 | 85 | 1011.7 |
| 20260507030050 | 54 | 346 | 2.0 | 5.0 | 0.00 | 0.61 | 0.00 | 85 | 1011.7 |
| 20260507025537 | 54 | 340 | 2.0 | 5.0 | 0.00 | 0.61 | 0.00 | 85 | 1011.7 |
| 20260507025037 | 54 | 338 | 3.0 | 4.0 | 0.00 | 0.61 | 0.00 | 85 | 1011.7 |
| 20260507024550 | 55 | 352 | 2.0 | 5.0 | 0.00 | 0.61 | 0.00 | 85 | 1011.7 |
| 20260507024039 | 55 | 17 | 2.0 | 6.0 | 0.00 | 0.61 | 0.00 | 85 | 1011.6 |
| 20260507023537 | 55 | 360 | 2.0 | 6.0 | 0.00 | 0.61 | 0.00 | 84 | 1011.6 |
| 20260507023047 | 55 | 9 | 2.0 | 6.0 | 0.00 | 0.61 | 0.00 | 84 | 1011.5 |
| 20260507022537 | 55 | 342 | 3.0 | 8.0 | 0.00 | 0.61 | 0.00 | 84 | 1011.6 |
| 20260507022039 | 55 | 327 | 3.0 | 8.0 | 0.00 | 0.61 | 0.00 | 84 | 1011.5 |
| 20260507021545 | 55 | 338 | 4.0 | 6.0 | 0.00 | 0.61 | 0.00 | 83 | 1011.6 |
| 20260507021038 | 55 | 347 | 3.0 | 6.0 | 0.00 | 0.61 | 0.00 | 83 | 1011.6 |
| 20260507020538 | 55 | 5 | 3.0 | 5.0 | 0.00 | 0.61 | 0.00 | 83 | 1011.6 |
| 20260507020047 | 55 | 360 | 3.0 | 5.0 | 0.00 | 0.61 | 0.00 | 83 | 1011.6 |
| 20260507015537 | 55 | 340 | 2.0 | 8.0 | 0.00 | 0.61 | 0.00 | 83 | 1011.5 |
| 20260507015038 | 56 | 319 | 2.0 | 8.0 | 0.00 | 0.61 | 0.00 | 83 | 1011.5 |
| 20260507014601 | 56 | 304 | 4.0 | 8.0 | 0.00 | 0.61 | 0.00 | 82 | 1011.6 |
| 20260507014038 | 56 | 332 | 2.0 | 8.0 | 0.00 | 0.61 | 0.00 | 82 | 1011.4 |
| 20260507013537 | 56 | 325 | 4.0 | 8.0 | 0.00 | 0.61 | 0.00 | 82 | 1011.4 |
| 20260507013050 | 56 | 318 | 3.0 | 7.0 | 0.00 | 0.61 | 0.00 | 82 | 1011.4 |
| 20260507012537 | 56 | 286 | 3.0 | 8.0 | 0.00 | 0.61 | 0.00 | 82 | 1011.4 |
| 20260507012037 | 56 | 307 | 4.0 | 8.0 | 0.00 | 0.61 | 0.00 | 82 | 1011.4 |
| 20260507011552 | 56 | 309 | 3.0 | 7.0 | 0.00 | 0.61 | 0.00 | 82 | 1011.4 |
| 20260507011038 | 56 | 325 | 2.0 | 7.0 | 0.00 | 0.61 | 0.00 | 82 | 1011.4 |
| 20260507010537 | 56 | 344 | 3.0 | 7.0 | 0.00 | 0.61 | 0.00 | 82 | 1011.2 |
| 20260507010054 | 56 | 9 | 3.0 | 8.0 | 0.00 | 0.61 | 0.00 | 82 | 1011.3 |
| 20260507005539 | 56 | 336 | 3.0 | 8.0 | 0.00 | 0.61 | 0.00 | 82 | 1011.3 |
| 20260507005038 | 56 | 321 | 4.0 | 8.0 | 0.00 | 0.61 | 0.00 | 82 | 1011.3 |
| 20260507004559 | 56 | 5 | 4.0 | 6.0 | 0.00 | 0.61 | 0.00 | 82 | 1011.3 |
| 20260507004038 | 56 | 352 | 4.0 | 6.0 | 0.00 | 0.61 | 0.00 | 82 | 1011.4 |
| 20260507003538 | 56 | 331 | 4.0 | 6.0 | 0.00 | 0.61 | 0.00 | 82 | 1011.4 |
| 20260507003046 | 56 | 341 | 3.0 | 6.0 | 0.00 | 0.61 | 0.00 | 82 | 1011.5 |
| 20260507002538 | 56 | 346 | 3.0 | 5.0 | 0.00 | 0.61 | 0.00 | 82 | 1011.4 |
| 20260507002038 | 56 | 335 | 3.0 | 5.0 | 0.00 | 0.61 | 0.00 | 82 | 1011.4 |
| 20260507001551 | 56 | 343 | 2.0 | 5.0 | 0.00 | 0.61 | 0.00 | 82 | 1011.4 |
| 20260507001037 | 56 | 349 | 3.0 | 5.0 | 0.00 | 0.61 | 0.00 | 82 | 1011.5 |
| 20260507000538 | 56 | 352 | 3.0 | 8.0 | 0.00 | 0.61 | 0.00 | 82 | 1011.5 |
| 20260507000054 | 56 | 345 | 3.0 | 8.0 | 0.00 | 0.61 | 0.00 | 82 | 1011.4 |
| 20260506235539 | 56 | 348 | 4.0 | 8.0 | 0.00 | 0.61 | 0.00 | 83 | 1011.4 |
| 20260506235037 | 56 | 21 | 4.0 | 8.0 | 0.00 | 0.61 | 0.00 | 83 | 1011.3 |
| 20260506234545 | 56 | 351 | 3.0 | 8.0 | 0.00 | 0.61 | 0.00 | 83 | 1011.4 |
| 20260506234040 | 56 | 342 | 3.0 | 5.0 | 0.00 | 0.61 | 0.00 | 83 | 1011.4 |
| 20260506233540 | 56 | 338 | 3.0 | 5.0 | 0.00 | 0.61 | 0.00 | 83 | 1011.3 |
| 20260506233056 | 56 | 331 | 2.0 | 5.0 | 0.00 | 0.61 | 0.00 | 82 | 1011.3 |
| 20260506232537 | 56 | 352 | 2.0 | 8.0 | 0.00 | 0.61 | 0.00 | 83 | 1011.2 |
| 20260506232035 | 56 | 347 | 3.0 | 8.0 | 0.00 | 0.61 | 0.00 | 82 | 1011.1 |
| 20260506231546 | 56 | 352 | 4.0 | 8.0 | 0.00 | 0.61 | 0.00 | 82 | 1011.0 |
| 20260506231035 | 56 | 5 | 3.0 | 7.0 | 0.00 | 0.61 | 0.00 | 82 | 1010.9 |
| 20260506230534 | 56 | 352 | 2.0 | 6.0 | 0.00 | 0.61 | 0.00 | 82 | 1010.9 |
| 20260506230051 | 56 | 5 | 2.0 | 6.0 | 0.00 | 0.61 | 0.00 | 82 | 1010.9 |
| 20260506225541 | 56 | 343 | 3.0 | 6.0 | 0.00 | 0.62 | 0.00 | 81 | 1010.8 |
| 20260506225038 | 57 | 9 | 3.0 | 6.0 | 0.00 | 0.62 | 0.00 | 81 | 1010.8 |
| 20260506224553 | 57 | 329 | 3.0 | 8.0 | 0.00 | 0.62 | 0.00 | 81 | 1010.9 |
| 20260506224039 | 57 | 352 | 3.0 | 8.0 | 0.00 | 0.62 | 0.00 | 81 | 1010.9 |
| 20260506223537 | 57 | 339 | 3.0 | 5.0 | 0.00 | 0.62 | 0.00 | 80 | 1010.8 |
| 20260506223045 | 57 | 323 | 2.0 | 7.0 | 0.00 | 0.62 | 0.00 | 80 | 1010.9 |
| 20260506222538 | 57 | 317 | 2.0 | 7.0 | 0.00 | 0.62 | 0.00 | 80 | 1011.0 |
| 20260506222038 | 57 | 300 | 2.0 | 6.0 | 0.00 | 0.62 | 0.00 | 80 | 1011.0 |
| 20260506221549 | 57 | 281 | 2.0 | 4.0 | 0.00 | 0.62 | 0.00 | 80 | 1011.0 |
| 20260506221037 | 57 | 259 | 2.0 | 3.0 | 0.00 | 0.62 | 0.00 | 80 | 1011.0 |
| 20260506220537 | 57 | 298 | 1.0 | 4.0 | 0.00 | 0.62 | 0.00 | 79 | 1011.0 |
| 20260506220049 | 57 | 56 | 0.0 | 4.0 | 0.00 | 0.62 | 0.00 | 79 | 1010.9 |
| 20260506215537 | 57 | 0 | 1.0 | 6.0 | 0.00 | 0.62 | 0.62 | 79 | 1010.9 |
| 20260506215039 | 57 | 360 | 3.0 | 6.0 | 0.00 | 0.62 | 0.62 | 79 | 1010.8 |
| 20260506214600 | 58 | 346 | 2.0 | 6.0 | 0.00 | 0.62 | 0.62 | 78 | 1010.7 |
| 20260506214036 | 58 | 14 | 2.0 | 9.0 | 0.00 | 0.62 | 0.62 | 78 | 1010.8 |
| 20260506213541 | 58 | 67 | 3.0 | 9.0 | 0.00 | 0.62 | 0.62 | 78 | 1010.7 |
| 20260506213049 | 58 | 20 | 4.0 | 9.0 | 0.00 | 0.62 | 0.62 | 77 | 1010.7 |
| 20260506212538 | 58 | 42 | 3.0 | 8.0 | 0.00 | 0.62 | 0.62 | 77 | 1010.7 |
| 20260506212038 | 58 | 26 | 3.0 | 9.0 | 0.00 | 0.62 | 0.62 | 77 | 1010.7 |
| 20260506211547 | 58 | 12 | 4.0 | 10.0 | 0.00 | 0.62 | 0.62 | 77 | 1010.7 |
| 20260506211038 | 58 | 360 | 5.0 | 10.0 | 0.00 | 0.62 | 0.62 | 77 | 1010.8 |
| 20260506210537 | 58 | 338 | 5.0 | 10.0 | 0.00 | 0.62 | 0.62 | 77 | 1010.7 |
| 20260506210050 | 58 | 48 | 3.0 | 8.0 | 0.00 | 0.62 | 0.62 | 78 | 1010.7 |
| 20260506205538 | 58 | 337 | 3.0 | 8.0 | 0.00 | 0.66 | 0.62 | 78 | 1010.7 |
| 20260506205037 | 58 | 352 | 4.0 | 9.0 | 0.00 | 0.66 | 0.62 | 78 | 1010.7 |
| 20260506204551 | 58 | 360 | 4.0 | 10.0 | 0.00 | 0.66 | 0.62 | 78 | 1010.7 |
| 20260506204037 | 58 | 344 | 4.0 | 10.0 | 0.00 | 0.66 | 0.62 | 78 | 1010.7 |
| 20260506203540 | 58 | 337 | 5.0 | 12.0 | 0.00 | 0.66 | 0.62 | 78 | 1010.6 |
| 20260506203048 | 58 | 11 | 6.0 | 12.0 | 0.00 | 0.66 | 0.62 | 78 | 1010.7 |
| 20260506202537 | 58 | 13 | 6.0 | 10.0 | 0.00 | 0.66 | 0.62 | 78 | 1010.4 |
| 20260506202036 | 57 | 352 | 6.0 | 13.0 | 0.00 | 0.66 | 0.62 | 79 | 1010.4 |
| 20260506201548 | 57 | 360 | 7.0 | 13.0 | 0.00 | 0.66 | 0.62 | 79 | 1010.4 |
| 20260506201036 | 57 | 11 | 7.0 | 13.0 | 0.00 | 0.66 | 0.62 | 80 | 1010.4 |
| 20260506200535 | 57 | 43 | 7.0 | 14.0 | 0.00 | 0.66 | 0.62 | 81 | 1010.3 |
| 20260506200100 | 57 | 26 | 8.0 | 14.0 | 0.00 | 0.66 | 0.62 | 82 | 1010.4 |
| 20260506195536 | 57 | 327 | 7.0 | 12.0 | 0.00 | 0.67 | 0.62 | 82 | 1010.4 |
| 20260506195038 | 57 | 352 | 6.0 | 12.0 | 0.00 | 0.67 | 0.62 | 82 | 1010.3 |
| 20260506194551 | 57 | 317 | 7.0 | 12.0 | 0.00 | 0.67 | 0.62 | 82 | 1010.4 |
| 20260506194039 | 58 | 345 | 8.0 | 12.0 | 0.00 | 0.67 | 0.62 | 82 | 1010.3 |
| 20260506193535 | 58 | 330 | 5.0 | 11.0 | 0.00 | 0.67 | 0.62 | 81 | 1010.0 |
| 20260506193054 | 58 | 328 | 3.0 | 9.0 | 0.00 | 0.67 | 0.62 | 80 | 1009.9 |
| 20260506192537 | 58 | 323 | 5.0 | 9.0 | 0.00 | 0.67 | 0.62 | 80 | 1010.0 |
| 20260506192041 | 58 | 333 | 3.0 | 8.0 | 0.00 | 0.67 | 0.62 | 79 | 1009.9 |
| 20260506191554 | 58 | 5 | 3.0 | 8.0 | 0.00 | 0.67 | 0.62 | 79 | 1009.8 |
| 20260506191038 | 58 | 348 | 4.0 | 8.0 | 0.00 | 0.67 | 0.62 | 79 | 1009.6 |
| 20260506190538 | 58 | 25 | 3.0 | 7.0 | 0.00 | 0.67 | 0.62 | 79 | 1009.6 |
| 20260506190053 | 58 | 30 | 3.0 | 7.0 | 0.00 | 0.67 | 0.62 | 79 | 1009.6 |
| 20260506185537 | 58 | 5 | 4.0 | 6.0 | 0.00 | 0.67 | 0.62 | 79 | 1009.5 |
| 20260506185035 | 58 | 338 | 3.0 | 9.0 | 0.00 | 0.67 | 0.62 | 78 | 1009.4 |
| 20260506184549 | 58 | 5 | 3.0 | 9.0 | 0.00 | 0.67 | 0.62 | 78 | 1009.4 |
| 20260506184036 | 58 | 13 | 4.0 | 9.0 | 0.00 | 0.67 | 0.62 | 78 | 1009.2 |
| 20260506183538 | 58 | 352 | 4.0 | 10.0 | 0.00 | 0.67 | 0.62 | 77 | 1009.1 |
| 20260506183052 | 59 | 352 | 5.0 | 15.0 | 0.00 | 0.67 | 0.62 | 77 | 1009.2 |
| 20260506182537 | 59 | 21 | 6.0 | 15.0 | 0.00 | 0.67 | 0.62 | 77 | 1009.1 |
| 20260506182037 | 59 | 44 | 8.0 | 15.0 | 0.00 | 0.67 | 0.62 | 76 | 1008.9 |
| 20260506181556 | 59 | 35 | 4.0 | 11.0 | 0.00 | 0.67 | 0.62 | 76 | 1008.8 |
| 20260506181038 | 60 | 35 | 5.0 | 11.0 | 0.00 | 0.67 | 0.62 | 76 | 1008.8 |
| 20260506180538 | 60 | 40 | 6.0 | 13.0 | 0.00 | 0.67 | 0.62 | 75 | 1008.8 |
| 20260506180111 | 60 | 32 | 5.0 | 13.0 | 0.00 | 0.67 | 0.62 | 75 | 1008.7 |
| 20260506175538 | 60 | 19 | 7.0 | 13.0 | 0.00 | 0.67 | 0.62 | 75 | 1008.6 |
| 20260506175037 | 60 | 5 | 6.0 | 12.0 | 0.00 | 0.67 | 0.62 | 75 | 1008.6 |
| 20260506174549 | 61 | 14 | 5.0 | 15.0 | 0.00 | 0.67 | 0.62 | 75 | 1008.6 |
| 20260506174037 | 61 | 5 | 8.0 | 15.0 | 0.00 | 0.67 | 0.62 | 74 | 1008.5 |
| 20260506173537 | 61 | 10 | 10.0 | 17.0 | 0.00 | 0.67 | 0.62 | 74 | 1008.4 |
| 20260506173106 | 61 | 352 | 9.0 | 17.0 | 0.00 | 0.67 | 0.62 | 74 | 1008.3 |
| 20260506172709 | 62 | 9 | 8.0 | 17.0 | 0.00 | 0.67 | 0.62 | 73 | 1008.2 |
| 20260506172037 | 62 | 360 | 11.0 | 17.0 | 0.00 | 0.67 | 0.62 | 72 | 1008.1 |
| 20260506171547 | 64 | 337 | 11.0 | 17.0 | 0.00 | 0.67 | 0.62 | 70 | 1008.0 |
| 20260506171037 | 65 | 22 | 9.0 | 17.0 | 0.00 | 0.67 | 0.62 | 68 | 1007.8 |
| 20260506170539 | 66 | 5 | 9.0 | 16.0 | 0.00 | 0.67 | 0.62 | 66 | 1007.6 |
| 20260506170050 | 67 | 320 | 7.0 | 14.0 | 0.00 | 0.67 | 0.62 | 62 | 1007.5 |
| 20260506165537 | 69 | 341 | 10.0 | 14.0 | 0.00 | 0.67 | 0.62 | 59 | 1007.3 |
| 20260506165038 | 70 | 236 | 4.0 | 13.0 | 0.00 | 0.67 | 0.62 | 49 | 1007.1 |
| 20260506164549 | 70 | 173 | 5.0 | 18.0 | 0.00 | 0.67 | 0.62 | 49 | 1006.9 |
| 20260506164037 | 70 | 209 | 9.0 | 18.0 | 0.00 | 0.67 | 0.62 | 49 | 1006.7 |
| 20260506163537 | 70 | 178 | 7.0 | 15.0 | 0.00 | 0.67 | 0.62 | 51 | 1006.7 |
| 20260506163055 | 70 | 171 | 7.0 | 16.0 | 0.00 | 0.67 | 0.62 | 51 | 1006.6 |
| 20260506162537 | 70 | 194 | 7.0 | 16.0 | 0.00 | 0.67 | 0.62 | 52 | 1006.6 |
| 20260506162039 | 70 | 167 | 6.0 | 16.0 | 0.00 | 0.67 | 0.62 | 49 | 1006.5 |
| 20260506161554 | 70 | 228 | 6.0 | 16.0 | 0.00 | 0.67 | 0.62 | 56 | 1006.5 |
| 20260506161037 | 70 | 157 | 8.0 | 16.0 | 0.00 | 0.67 | 0.62 | 57 | 1006.4 |
| 20260506160537 | 70 | 163 | 7.0 | 16.0 | 0.00 | 0.67 | 0.62 | 64 | 1006.4 |
| 20260506160049 | 70 | 140 | 9.0 | 17.0 | 0.00 | 0.67 | 0.62 | 73 | 1006.4 |
| 20260506155541 | 69 | 148 | 8.0 | 17.0 | 0.00 | 0.67 | 0.62 | 74 | 1006.4 |
| 20260506155035 | 69 | 150 | 12.0 | 17.0 | 0.00 | 0.67 | 0.62 | 74 | 1006.5 |
| 20260506154552 | 69 | 132 | 8.0 | 20.0 | 0.00 | 0.67 | 0.62 | 76 | 1006.5 |
| 20260506154038 | 69 | 120 | 10.0 | 20.0 | 0.00 | 0.67 | 0.62 | 76 | 1006.6 |
| 20260506153538 | 69 | 149 | 11.0 | 20.0 | 0.00 | 0.67 | 0.62 | 71 | 1006.6 |
| 20260506153046 | 69 | 140 | 11.0 | 19.0 | 0.00 | 0.67 | 0.62 | 77 | 1006.7 |
| 20260506152538 | 69 | 112 | 9.0 | 15.0 | 0.00 | 0.67 | 0.62 | 78 | 1006.7 |
| 20260506152041 | 69 | 106 | 9.0 | 18.0 | 0.00 | 0.67 | 0.62 | 77 | 1006.7 |
| 20260506151548 | 69 | 89 | 11.0 | 19.0 | 0.00 | 0.67 | 0.62 | 77 | 1006.8 |
| 20260506151037 | 68 | 121 | 10.0 | 19.0 | 0.00 | 0.67 | 0.62 | 77 | 1006.9 |
| 20260506150537 | 68 | 131 | 10.0 | 17.0 | 0.00 | 0.67 | 0.62 | 79 | 1006.9 |
| 20260506150056 | 68 | 126 | 10.0 | 17.0 | 0.00 | 0.67 | 0.62 | 78 | 1007.0 |
| 20260506145539 | 68 | 126 | 9.0 | 17.0 | 0.00 | 0.67 | 0.62 | 79 | 1007.1 |
| 20260506145037 | 68 | 95 | 9.0 | 17.0 | 0.00 | 0.67 | 0.62 | 74 | 1007.3 |
| 20260506144601 | 68 | 92 | 8.0 | 15.0 | 0.00 | 0.67 | 0.62 | 80 | 1007.3 |
| 20260506144037 | 68 | 132 | 10.0 | 17.0 | 0.00 | 0.67 | 0.62 | 81 | 1007.3 |
| 20260506143537 | 67 | 124 | 11.0 | 19.0 | 0.00 | 0.67 | 0.62 | 79 | 1007.3 |
| 20260506143047 | 67 | 127 | 13.0 | 19.0 | 0.00 | 0.67 | 0.62 | 79 | 1007.4 |
| 20260506142539 | 67 | 129 | 11.0 | 19.0 | 0.00 | 0.67 | 0.62 | 80 | 1007.4 |
| 20260506142037 | 67 | 101 | 10.0 | 18.0 | 0.00 | 0.67 | 0.62 | 80 | 1007.4 |
| 20260506141545 | 67 | 139 | 12.0 | 22.0 | 0.00 | 0.67 | 0.62 | 80 | 1007.5 |
| 20260506141037 | 67 | 118 | 13.0 | 22.0 | 0.00 | 0.67 | 0.62 | 80 | 1007.5 |
| 20260506140538 | 67 | 152 | 13.0 | 21.0 | 0.00 | 0.67 | 0.62 | 80 | 1007.7 |
| 20260506140051 | 67 | 136 | 13.0 | 19.0 | 0.00 | 0.67 | 0.62 | 80 | 1007.8 |
| 20260506135537 | 67 | 130 | 11.0 | 17.0 | 0.00 | 0.67 | 0.62 | 81 | 1007.9 |
| 20260506135037 | 67 | 137 | 12.0 | 19.0 | 0.00 | 0.67 | 0.62 | 79 | 1007.9 |
| 20260506134549 | 67 | 74 | 12.0 | 19.0 | 0.00 | 0.67 | 0.62 | 80 | 1007.9 |
| 20260506134037 | 67 | 128 | 10.0 | 17.0 | 0.00 | 0.67 | 0.62 | 76 | 1008.0 |
| 20260506133538 | 66 | 136 | 8.0 | 17.0 | 0.00 | 0.67 | 0.62 | 83 | 1008.2 |
| 20260506133051 | 66 | 136 | 10.0 | 17.0 | 0.00 | 0.67 | 0.62 | 82 | 1008.3 |
| 20260506132537 | 66 | 111 | 10.0 | 17.0 | 0.00 | 0.67 | 0.62 | 81 | 1008.3 |
| 20260506132037 | 66 | 113 | 8.0 | 14.0 | 0.00 | 0.67 | 0.62 | 83 | 1008.4 |
| 20260506131549 | 66 | 98 | 9.0 | 18.0 | 0.00 | 0.67 | 0.62 | 82 | 1008.4 |
| 20260506131037 | 66 | 147 | 11.0 | 18.0 | 0.00 | 0.67 | 0.62 | 83 | 1008.3 |
| 20260506130537 | 65 | 125 | 11.0 | 20.0 | 0.00 | 0.67 | 0.62 | 83 | 1008.3 |
| 20260506130052 | 65 | 137 | 13.0 | 20.0 | 0.00 | 0.67 | 0.62 | 82 | 1008.5 |
| 20260506125537 | 65 | 104 | 10.0 | 16.0 | 0.00 | 0.67 | 0.62 | 83 | 1008.5 |
| 20260506125037 | 65 | 121 | 9.0 | 17.0 | 0.00 | 0.67 | 0.62 | 83 | 1008.5 |
| 20260506124553 | 65 | 73 | 9.0 | 19.0 | 0.00 | 0.67 | 0.62 | 83 | 1008.5 |
| 20260506124041 | 65 | 86 | 8.0 | 19.0 | 0.00 | 0.67 | 0.62 | 85 | 1008.5 |
| 20260506123538 | 65 | 103 | 10.0 | 19.0 | 0.00 | 0.67 | 0.62 | 84 | 1008.5 |
| 20260506123049 | 65 | 38 | 11.0 | 17.0 | 0.00 | 0.67 | 0.62 | 83 | 1008.6 |
| 20260506122538 | 65 | 105 | 8.0 | 15.0 | 0.00 | 0.67 | 0.62 | 84 | 1008.7 |
| 20260506122039 | 64 | 168 | 9.0 | 16.0 | 0.00 | 0.67 | 0.62 | 84 | 1008.7 |
| 20260506121548 | 64 | 112 | 9.0 | 16.0 | 0.00 | 0.67 | 0.62 | 84 | 1008.8 |
| 20260506121037 | 64 | 109 | 10.0 | 16.0 | 0.00 | 0.67 | 0.62 | 85 | 1008.8 |
| 20260506120538 | 64 | 88 | 9.0 | 17.0 | 0.00 | 0.67 | 0.62 | 85 | 1008.8 |
| 20260506120050 | 64 | 93 | 10.0 | 17.0 | 0.00 | 0.67 | 0.62 | 86 | 1008.8 |
| 20260506115541 | 64 | 127 | 9.0 | 17.0 | 0.00 | 0.67 | 0.62 | 87 | 1008.8 |
| 20260506115038 | 63 | 120 | 9.0 | 17.0 | 0.00 | 0.67 | 0.62 | 87 | 1008.8 |
| 20260506114547 | 63 | 102 | 11.0 | 17.0 | 0.00 | 0.67 | 0.62 | 89 | 1009.0 |
| 20260506114038 | 63 | 126 | 9.0 | 20.0 | 0.00 | 0.67 | 0.62 | 89 | 1008.9 |
| 20260506113537 | 62 | 130 | 10.0 | 20.0 | 0.00 | 0.67 | 0.62 | 88 | 1008.9 |
| 20260506113045 | 62 | 112 | 9.0 | 16.0 | 0.00 | 0.67 | 0.62 | 89 | 1009.0 |
| 20260506112538 | 62 | 135 | 10.0 | 18.0 | 0.00 | 0.67 | 0.62 | 89 | 1009.0 |
| 20260506112039 | 62 | 145 | 12.0 | 18.0 | 0.00 | 0.67 | 0.62 | 90 | 1008.9 |
| 20260506111547 | 62 | 110 | 10.0 | 18.0 | 0.00 | 0.67 | 0.62 | 91 | 1009.0 |
| 20260506111037 | 61 | 123 | 10.0 | 15.0 | 0.00 | 0.67 | 0.62 | 90 | 1009.0 |
| 20260506110538 | 61 | 147 | 10.0 | 17.0 | 0.00 | 0.67 | 0.62 | 90 | 1009.1 |
| 20260506110046 | 61 | 147 | 9.0 | 18.0 | 0.00 | 0.67 | 0.62 | 91 | 1009.1 |
| 20260506105538 | 61 | 138 | 8.0 | 20.0 | 0.00 | 0.67 | 0.62 | 91 | 1009.2 |
| 20260506105041 | 61 | 134 | 13.0 | 20.0 | 0.00 | 0.67 | 0.62 | 91 | 1009.2 |
| 20260506104555 | 61 | 129 | 11.0 | 18.0 | 0.00 | 0.67 | 0.62 | 93 | 1009.3 |
| 20260506104037 | 60 | 84 | 10.0 | 17.0 | 0.00 | 0.67 | 0.62 | 93 | 1009.2 |
| 20260506103537 | 60 | 169 | 8.0 | 15.0 | 0.00 | 0.67 | 0.62 | 94 | 1009.2 |
| 20260506103046 | 60 | 102 | 9.0 | 17.0 | 0.03 | 0.67 | 0.62 | 94 | 1009.3 |
| 20260506102540 | 59 | 82 | 9.0 | 17.0 | 0.10 | 0.67 | 0.62 | 93 | 1009.3 |
| 20260506102036 | 59 | 116 | 9.0 | 18.0 | 0.15 | 0.67 | 0.62 | 93 | 1009.4 |
| 20260506101548 | 59 | 82 | 10.0 | 23.0 | 0.17 | 0.67 | 0.62 | 94 | 1009.3 |
| 20260506101037 | 59 | 144 | 12.0 | 23.0 | 0.18 | 0.67 | 0.62 | 94 | 1009.4 |
| 20260506100537 | 59 | 85 | 12.0 | 21.0 | 0.22 | 0.67 | 0.62 | 95 | 1009.5 |
| 20260506100047 | 59 | 76 | 12.0 | 21.0 | 0.26 | 0.67 | 0.62 | 96 | 1009.3 |
| 20260506095538 | 58 | 102 | 10.0 | 21.0 | 0.30 | 0.67 | 0.62 | 96 | 1009.1 |
| 20260506095040 | 58 | 105 | 10.0 | 18.0 | 0.29 | 0.66 | 0.61 | 96 | 1009.1 |
| 20260506094600 | 58 | 59 | 7.0 | 26.0 | 0.30 | 0.66 | 0.61 | 96 | 1009.1 |
| 20260506094037 | 57 | 126 | 15.0 | 26.0 | 0.31 | 0.66 | 0.61 | 95 | 1009.1 |
| 20260506093537 | 58 | 117 | 10.0 | 17.0 | 0.31 | 0.66 | 0.60 | 96 | 1009.1 |
| 20260506093047 | 57 | 72 | 10.0 | 17.0 | 0.29 | 0.63 | 0.58 | 96 | 1009.4 |
| 20260506092537 | 57 | 105 | 11.0 | 17.0 | 0.22 | 0.56 | 0.51 | 96 | 1009.4 |
| 20260506092037 | 57 | 113 | 8.0 | 13.0 | 0.18 | 0.51 | 0.46 | 96 | 1009.5 |
| 20260506091548 | 57 | 98 | 8.0 | 13.0 | 0.16 | 0.50 | 0.44 | 95 | 1009.6 |
| 20260506091037 | 57 | 143 | 4.0 | 9.0 | 0.16 | 0.49 | 0.44 | 95 | 1009.8 |
| 20260506090538 | 57 | 119 | 1.0 | 6.0 | 0.14 | 0.44 | 0.39 | 95 | 1010.0 |
| 20260506090047 | 57 | 234 | 2.0 | 6.0 | 0.10 | 0.40 | 0.35 | 95 | 1010.2 |
| 20260506085537 | 57 | 227 | 1.0 | 11.0 | 0.06 | 0.40 | 0.31 | 95 | 1010.0 |
| 20260506085039 | 57 | 58 | 5.0 | 12.0 | 0.06 | 0.40 | 0.31 | 95 | 1009.6 |
| 20260506084550 | 57 | 63 | 5.0 | 13.0 | 0.05 | 0.40 | 0.30 | 95 | 1009.4 |
| 20260506084038 | 57 | 112 | 7.0 | 16.0 | 0.04 | 0.39 | 0.29 | 95 | 1009.2 |
| 20260506083538 | 57 | 121 | 9.0 | 17.0 | 0.03 | 0.38 | 0.29 | 95 | 1009.2 |
| 20260506083057 | 57 | 142 | 10.0 | 17.0 | 0.03 | 0.38 | 0.29 | 96 | 1009.2 |
| 20260506082537 | 57 | 109 | 9.0 | 17.0 | 0.03 | 0.37 | 0.28 | 96 | 1009.3 |
| 20260506082037 | 57 | 100 | 10.0 | 19.0 | 0.03 | 0.37 | 0.28 | 96 | 1009.2 |
| 20260506081547 | 57 | 78 | 9.0 | 19.0 | 0.03 | 0.37 | 0.28 | 96 | 1009.0 |
| 20260506081038 | 57 | 82 | 7.0 | 14.0 | 0.02 | 0.37 | 0.27 | 96 | 1009.3 |
| 20260506080537 | 57 | 111 | 8.0 | 16.0 | 0.00 | 0.34 | 0.25 | 96 | 1009.5 |
| 20260506080106 | 57 | 106 | 8.0 | 20.0 | 0.00 | 0.34 | 0.25 | 95 | 1009.6 |
| 20260506073103 | 56 | 107 | 10.0 | 18.0 | 0.00 | 0.40 | 0.25 | 96 | 1009.4 |
| 20260506072541 | 56 | 120 | 10.0 | 18.0 | 0.00 | 0.40 | 0.25 | 96 | 1009.4 |
| 20260506072036 | 56 | 137 | 10.0 | 18.0 | 0.00 | 0.40 | 0.25 | 96 | 1009.4 |
| 20260506071553 | 56 | 109 | 11.0 | 18.0 | 0.01 | 0.40 | 0.25 | 96 | 1009.4 |
| 20260506071037 | 56 | 113 | 8.0 | 14.0 | 0.01 | 0.40 | 0.25 | 96 | 1009.3 |
| 20260506070537 | 56 | 63 | 6.0 | 14.0 | 0.01 | 0.40 | 0.25 | 96 | 1009.3 |